Laconia, NH

10:03 PM EDT on May 29, 2017 (GMT -0400)
Laconia Municipal

Weather History for KLCI - April, 2013

Change the Weather History Date:

Wednesday, April 3, 2013

  Actual Average Record
Temperature  
Mean Temperature 34 °F -  
Max Temperature 42 °F 47 °F 67 °F (1988)
Min Temperature 26 °F 29 °F 20 °F (1978)
Degree Days  
Heating Degree Days 31    
Moisture  
Dew Point 7 °F    
Average Humidity 35    
Maximum Humidity 51    
Minimum Humidity 21    
Precipitation  
Precipitation 0.00 in - - ()
Sea Level Pressure  
Sea Level Pressure 29.91 in    
Wind  
Wind Speed 15 mph (West)    
Max Wind Speed 24 mph    
Max Gust Speed 37 mph    
Visibility 10 miles    
Events      
Averages and records for this station are not official NWS values.
T = Trace of Precipitation, MM = Missing Value Source: NWS Daily Summary

Daily Weather History Graph

Daily Weather History Graph

Search for Another Location

Airport or City:

Trip Planner

Search our weather history database for the weather conditions in past years. The results will help you decide how hot, cold, wet, or windy it might be!

Date:

Astronomy

Apr. 03, 2013 Rise Set
Actual Time 6:23 AM EDT 7:15 PM EDT
Civil Twilight 5:54 AM EDT 7:44 PM EDT
Nautical Twilight 5:19 AM EDT 8:18 PM EDT
Astronomical Twilight 4:43 AM EDT 8:54 PM EDT
Moon 2:13 AM EDT (4/3) 12:12 PM EDT (4/3)
Length of Visible Light 13h 49m
Length of Day
12h 51m
Last Quarter, 45% of the Moon is Illuminated
Apr 3
Last Quarter
Apr 10
New
Apr 18
First Quarter
Apr 25
Full
May 2
Last Quarter

Hourly Weather History & Observations

Time (EDT) Temp. Windchill Dew Point Humidity Pressure Visibility Wind Dir Wind Speed Gust Speed Precip Events Conditions
12:15 AM 30.2 °F 18.9 °F 8.6 °F 40% 29.82 in 10.0 mi WSW 16.1 mph 21.9 mph N/A   Partly Cloudy
12:35 AM 30.2 °F 18.9 °F 8.6 °F 40% 29.82 in 10.0 mi WSW 16.1 mph 25.3 mph N/A   Scattered Clouds
12:55 AM 28.4 °F 18.0 °F 8.6 °F 43% 29.82 in 10.0 mi West 12.7 mph 20.7 mph N/A   Scattered Clouds
1:15 AM 28.4 °F 17.5 °F 8.6 °F 43% 29.83 in 10.0 mi West 13.8 mph 25.3 mph N/A   Partly Cloudy
1:35 AM 28.4 °F 16.6 °F 8.6 °F 43% 29.83 in 10.0 mi West 16.1 mph 25.3 mph N/A   Clear
1:55 AM 28.4 °F 18.0 °F 8.6 °F 43% 29.83 in 10.0 mi WSW 12.7 mph 20.7 mph N/A   Partly Cloudy
2:15 AM 28.4 °F 16.2 °F 8.6 °F 43% 29.83 in 10.0 mi WSW 17.3 mph 23.0 mph N/A   Partly Cloudy
2:35 AM 28.4 °F 18.0 °F 8.6 °F 43% 29.83 in 10.0 mi West 12.7 mph 23.0 mph N/A   Mostly Cloudy
2:55 AM 28.4 °F 18.5 °F 8.6 °F 43% 29.83 in 10.0 mi WSW 11.5 mph 17.3 mph N/A   Overcast
3:15 AM 28.4 °F 17.0 °F 8.6 °F 43% 29.83 in 10.0 mi West 15.0 mph 23.0 mph N/A   Overcast
3:35 AM 28.4 °F 16.6 °F 8.6 °F 43% 29.83 in 10.0 mi WSW 16.1 mph 24.2 mph N/A   Overcast
3:55 AM 28.4 °F 16.2 °F 8.6 °F 43% 29.83 in 10.0 mi WSW 17.3 mph 20.7 mph N/A   Overcast
4:35 AM 26.6 °F 15.7 °F 8.6 °F 47% 29.84 in 10.0 mi WSW 12.7 mph - N/A   Overcast
5:15 AM 26.6 °F 15.2 °F 8.6 °F 47% 29.85 in 10.0 mi West 13.8 mph 19.6 mph N/A   Partly Cloudy
5:35 AM 26.6 °F 13.8 °F 8.6 °F 47% 29.85 in 10.0 mi WSW 17.3 mph 23.0 mph N/A   Clear
5:55 AM 26.6 °F 15.7 °F 6.8 °F 43% 29.85 in 10.0 mi WSW 12.7 mph 24.2 mph N/A   Clear
6:35 AM 26.6 °F 15.7 °F 6.8 °F 43% 29.87 in 10.0 mi West 12.7 mph - N/A   Clear
6:55 AM 26.6 °F 14.7 °F 6.8 °F 43% 29.88 in 10.0 mi West 15.0 mph 21.9 mph N/A   Clear
7:15 AM 26.6 °F 14.7 °F 8.6 °F 47% 29.89 in 10.0 mi WSW 15.0 mph 27.6 mph N/A   Clear
7:35 AM 26.6 °F 13.8 °F 6.8 °F 43% 29.89 in 10.0 mi WSW 17.3 mph 23.0 mph N/A   Clear
7:55 AM 26.6 °F 14.3 °F 8.6 °F 47% 29.89 in 10.0 mi West 16.1 mph 25.3 mph N/A   Clear
8:15 AM 28.4 °F 17.0 °F 8.6 °F 43% 29.89 in 10.0 mi West 15.0 mph 25.3 mph N/A   Clear
8:35 AM 28.4 °F 16.6 °F 6.8 °F 40% 29.89 in 10.0 mi West 16.1 mph 31.1 mph N/A   Clear
8:55 AM 28.4 °F 14.7 °F 8.6 °F 43% 29.89 in 10.0 mi WSW 21.9 mph 32.2 mph N/A   Scattered Clouds
9:15 AM 30.2 °F 20.2 °F 8.6 °F 40% 29.89 in 10.0 mi West 12.7 mph 26.5 mph N/A   Scattered Clouds
9:35 AM 30.2 °F 17.1 °F 8.6 °F 40% 29.89 in 10.0 mi WSW 21.9 mph 28.8 mph N/A   Partly Cloudy
9:55 AM 30.2 °F 18.5 °F 6.8 °F 37% 29.89 in 10.0 mi West 17.3 mph 31.1 mph N/A   Partly Cloudy
10:15 AM 32.0 °F 20.5 °F 6.8 °F 35% 29.89 in 10.0 mi West 18.4 mph 26.5 mph N/A   Clear
10:35 AM 32.0 °F 23.6 °F 6.8 °F 35% 29.89 in 10.0 mi West 10.4 mph 27.6 mph N/A   Clear
10:55 AM 33.8 °F 23.5 °F 6.8 °F 32% 29.89 in 10.0 mi WNW 16.1 mph 33.4 mph N/A   Clear
11:15 AM 33.8 °F 22.8 °F 6.8 °F 32% 29.89 in 10.0 mi West 18.4 mph 32.2 mph N/A   Clear
11:55 AM 35.6 °F 26.6 °F 6.8 °F 30% 29.89 in 10.0 mi WNW 13.8 mph 28.8 mph N/A   Clear
12:15 PM 37.4 °F 28.2 °F 6.8 °F 28% 29.88 in 10.0 mi West 16.1 mph 27.6 mph N/A   Clear
12:35 PM 37.4 °F 28.9 °F 6.8 °F 28% 29.88 in 10.0 mi West 13.8 mph 28.8 mph N/A   Clear
12:55 PM 37.4 °F 28.2 °F 6.8 °F 28% 29.89 in 10.0 mi West 16.1 mph 28.8 mph N/A   Clear
1:15 PM 37.4 °F 26.6 °F 6.8 °F 28% 29.89 in 10.0 mi West 21.9 mph 32.2 mph N/A   Clear
1:55 PM 39.2 °F 28.5 °F 6.8 °F 26% 29.88 in 10.0 mi WSW 24.2 mph 36.8 mph N/A   Clear
2:15 PM 39.2 °F 30.2 °F 5.0 °F 24% 29.89 in 10.0 mi WSW 17.3 mph 32.2 mph N/A   Clear
2:55 PM 41.0 °F 33.1 °F 5.0 °F 23% 29.89 in 10.0 mi West 15.0 mph 27.6 mph N/A   Clear
3:15 PM 41.0 °F 33.1 °F 5.0 °F 23% 29.89 in 10.0 mi West 15.0 mph 25.3 mph N/A   Clear
3:35 PM 42.8 °F 35.8 °F 5.0 °F 21% 29.89 in 10.0 mi West 13.8 mph 23.0 mph N/A   Clear
3:55 PM 42.8 °F 35.8 °F 5.0 °F 21% 29.89 in 10.0 mi West 13.8 mph 28.8 mph N/A   Clear
4:15 PM 41.0 °F 31.9 °F 3.2 °F 21% 29.89 in 10.0 mi West 19.6 mph 29.9 mph N/A   Clear
4:35 PM 41.0 °F 35.2 °F 3.2 °F 21% 29.89 in 10.0 mi West 9.2 mph 23.0 mph N/A   Clear
4:55 PM 41.0 °F 32.5 °F 3.2 °F 21% 29.90 in 10.0 mi WNW 17.3 mph 25.3 mph N/A   Clear
5:15 PM 41.0 °F 31.6 °F 3.2 °F 21% 29.90 in 10.0 mi West 20.7 mph 26.5 mph N/A   Clear
5:35 PM 41.0 °F 32.8 °F 3.2 °F 21% 29.91 in 10.0 mi West 16.1 mph 25.3 mph N/A   Clear
5:55 PM 41.0 °F 33.5 °F 3.2 °F 21% 29.92 in 10.0 mi West 13.8 mph 20.7 mph N/A   Clear
6:15 PM 41.0 °F 33.5 °F 3.2 °F 21% 29.92 in 10.0 mi West 13.8 mph 23.0 mph N/A   Clear
6:55 PM 39.2 °F 32.5 °F 3.2 °F 22% 29.95 in 10.0 mi West 10.4 mph 32.2 mph N/A   Clear
7:15 PM 37.4 °F 28.9 °F 3.2 °F 24% 29.97 in 10.0 mi West 13.8 mph 20.7 mph N/A   Clear
7:35 PM 37.4 °F 29.8 °F 5.0 °F 26% 29.98 in 10.0 mi West 11.5 mph 23.0 mph N/A   Clear
7:55 PM 37.4 °F 31.4 °F 5.0 °F 26% 30.00 in 10.0 mi WNW 8.1 mph 16.1 mph N/A   Clear
8:15 PM 35.6 °F 31.7 °F 6.8 °F 30% 30.01 in 10.0 mi WNW 4.6 mph - N/A   Clear
8:35 PM 35.6 °F 28.6 °F 6.8 °F 30% 30.02 in 10.0 mi WNW 9.2 mph - N/A   Clear
8:55 PM 35.6 °F 29.2 °F 8.6 °F 33% 30.04 in 10.0 mi West 8.1 mph 16.1 mph N/A   Clear
9:15 PM 35.6 °F 27.5 °F 8.6 °F 33% 30.05 in 10.0 mi WNW 11.5 mph 21.9 mph N/A   Clear
9:35 PM 33.8 °F 25.8 °F 10.4 °F 38% 30.05 in 10.0 mi West 10.4 mph 20.7 mph N/A   Clear
9:55 PM 33.8 °F 22.5 °F 10.4 °F 38% 30.06 in 10.0 mi West 19.6 mph 32.2 mph N/A   Clear
10:15 PM 33.8 °F 27.7 °F 10.4 °F 38% 30.06 in 10.0 mi West 6.9 mph 17.3 mph N/A   Clear
10:35 PM 33.8 °F 26.4 °F 10.4 °F 38% 30.07 in 10.0 mi West 9.2 mph 19.6 mph N/A   Clear
10:55 PM 33.8 °F 23.2 °F 12.2 °F 41% 30.08 in 10.0 mi West 17.3 mph 27.6 mph N/A   Clear
11:15 PM 33.8 °F 23.2 °F 14.0 °F 44% 30.08 in 10.0 mi West 17.3 mph 29.9 mph N/A   Clear
11:35 PM 33.8 °F 23.5 °F 15.8 °F 48% 30.09 in 10.0 mi West 16.1 mph 27.6 mph N/A   Clear
11:55 PM 32.0 °F 24.8 °F 15.8 °F 51% 30.10 in 10.0 mi West 8.1 mph 20.7 mph N/A   Clear